Location: Pagani
(40.7500°N, 14.6167°E)
Time: 12:29:26
(UTC+00:00)

Cosmos-2242 - Pass Details

Date: 15 May 2026
Orbit: 565 x 588 km, 82.5° (Epoch: 8 June)

Event Time Altitude Azimuth Distance (km) Brightness Sun altitude
Exits shadow 21:37:48 47° 331° (NNW) 762 3.8 -27.4°
Drops below altitude 10° 21:40:58 10° 0° (N) 1,873 6.4 -27.6°
Sets 21:43:11 0° 4° (N) 2,772 7.4 -27.7°
